Location: Coupvray
(48.8929°N, 2.7967°E)
Time: 04:09:30
(UTC+00:00)

Cosmos 1833 Rocket - Pass Details

Date: 14 July 2020
Orbit: 832 x 840 km, 71.0° (Epoch: 06 August)

Event Time Altitude Azimuth Distance (km) Brightness Sun altitude
Exits shadow 02:26:44 16° 219° (SW) 2,050 4.0 -11.8°
Maximum altitude 02:31:15 68° 301° (WNW) 896 2.8 -11.3°
Drops below altitude 10° 02:36:52 10° 25° (NNE) 2,456 6.6 -10.8°
Sets 02:39:21 0° 28° (NNE) 3,395 7.8 -10.5°
